AFL41 ULLI-UUEE

Flight info

Callsign AFL41
Flight time 0h 59m
Altitude 35000
Route SUGIN1B SUGIN T873 NIRGI T73 NAMIN NAMIN3F
Aircraft A321/M-SDE3FGHIRWY/LB1

Departure

Time 2026-05-05 12:38
Airport Pulkovo Airport (ULLI)

Arrival

Time 2026-05-05 13:37
Airport Sheremetyevo International Airport (UUEE)
Time Latitude Longitude Altitude Speed Heading
2026-05-05 12:18 59.79778 30.26680 82 ft 0 kts 94°
2026-05-05 12:32 59.79779 30.26646 83 ft 4 kts 96°
2026-05-05 12:32 59.79782 30.26593 81 ft 4 kts 97°
2026-05-05 12:32 59.79790 30.26549 83 ft 4 kts 145°
2026-05-05 12:32 59.79813 30.26536 86 ft 3 kts 194°
2026-05-05 12:33 59.79821 30.26540 86 ft 0 kts 197°
2026-05-05 12:35 59.79792 30.26524 85 ft 9 kts 197°
2026-05-05 12:35 59.79688 30.26462 80 ft 20 kts 197°
2026-05-05 12:36 59.79568 30.26390 85 ft 11 kts 197°
2026-05-05 12:36 59.79508 30.26366 85 ft 7 kts 167°
2026-05-05 12:36 59.79474 30.26421 86 ft 6 kts 150°
2026-05-05 12:36 59.79424 30.26408 84 ft 11 kts 196°
2026-05-05 12:37 59.79338 30.26332 83 ft 15 kts 226°
2026-05-05 12:37 59.79347 30.26154 82 ft 16 kts 286°
2026-05-05 12:37 59.79388 30.25877 86 ft 54 kts 286°
2026-05-05 12:37 59.79562 30.24719 81 ft 117 kts 286°
2026-05-05 12:38 59.79841 30.22883 230 ft 148 kts 288°
2026-05-05 12:38 59.80127 30.20991 1004 ft 141 kts 286°
2026-05-05 12:38 59.80392 30.19156 1580 ft 142 kts 284°
2026-05-05 12:38 59.80687 30.17119 1717 ft 165 kts 284°
2026-05-05 12:39 59.81028 30.14790 1860 ft 185 kts 284°
2026-05-05 12:39 59.81414 30.12156 2071 ft 204 kts 284°
2026-05-05 12:39 59.81820 30.09409 2775 ft 208 kts 283°
2026-05-05 12:39 59.82231 30.06623 3554 ft 210 kts 281°
2026-05-05 12:40 59.82646 30.03795 4241 ft 215 kts 281°
2026-05-05 12:40 59.83055 30.00931 4969 ft 216 kts 276°
2026-05-05 12:40 59.82934 29.98067 5647 ft 209 kts 241°
2026-05-05 12:40 59.81900 29.96076 6322 ft 215 kts 207°
2026-05-05 12:41 59.80459 29.95147 7018 ft 219 kts 201°
2026-05-05 12:41 59.78984 29.94315 7739 ft 221 kts 202°
2026-05-05 12:41 59.77497 29.93486 8463 ft 223 kts 203°
2026-05-05 12:41 59.75996 29.92648 9191 ft 225 kts 203°
2026-05-05 12:42 59.74390 29.92447 9832 ft 248 kts 175°
2026-05-05 12:42 59.72816 29.94263 10280 ft 286 kts 142°
2026-05-05 12:42 59.71676 29.97803 10446 ft 324 kts 120°
2026-05-05 12:42 59.70931 30.02213 10591 ft 352 kts 109°
2026-05-05 12:43 59.70380 30.07067 10713 ft 376 kts 106°
2026-05-05 12:43 59.69856 30.12296 11029 ft 390 kts 105°
2026-05-05 12:43 59.69564 30.17690 11620 ft 397 kts 92°
2026-05-05 12:43 59.69630 30.23182 12234 ft 402 kts 92°
2026-05-05 12:44 59.69598 30.28761 12810 ft 407 kts 94°
2026-05-05 12:44 59.69411 30.34376 13364 ft 410 kts 103°
2026-05-05 12:44 59.68768 30.39882 13878 ft 413 kts 108°
2026-05-05 12:44 59.68098 30.45434 14434 ft 417 kts 107°
2026-05-05 12:45 59.67468 30.51063 14995 ft 421 kts 106°
2026-05-05 12:45 59.66864 30.56749 15544 ft 424 kts 106°
2026-05-05 12:45 59.66266 30.62483 16087 ft 427 kts 106°
2026-05-05 12:45 59.65660 30.68274 16628 ft 431 kts 106°
2026-05-05 12:46 59.65083 30.74113 17162 ft 435 kts 104°
2026-05-05 12:46 59.64574 30.80032 17681 ft 439 kts 103°
2026-05-05 12:46 59.64105 30.86018 18179 ft 441 kts 102°
2026-05-05 12:46 59.63655 30.91956 18648 ft 443 kts 102°
2026-05-05 12:47 59.63187 30.98002 19111 ft 445 kts 102°
2026-05-05 12:47 59.62702 31.04058 19560 ft 447 kts 103°
2026-05-05 12:47 59.62195 31.10140 20008 ft 450 kts 103°
2026-05-05 12:47 59.61669 31.16253 20457 ft 452 kts 103°
2026-05-05 12:48 59.61127 31.22471 20909 ft 455 kts 103°
2026-05-05 12:48 59.60594 31.28556 21342 ft 457 kts 103°
2026-05-05 12:48 59.60054 31.34728 21774 ft 460 kts 103°
2026-05-05 12:48 59.59506 31.41005 22203 ft 462 kts 103°
2026-05-05 12:49 59.58961 31.47275 22623 ft 465 kts 103°
2026-05-05 12:49 59.58408 31.53576 23035 ft 467 kts 103°
2026-05-05 12:49 59.57849 31.59891 23458 ft 468 kts 103°
2026-05-05 12:49 59.57282 31.66238 23825 ft 471 kts 104°
2026-05-05 12:50 59.56708 31.72615 24145 ft 473 kts 104°
2026-05-05 12:50 59.56130 31.79023 24483 ft 476 kts 104°
2026-05-05 12:50 59.55546 31.85456 24828 ft 477 kts 104°
2026-05-05 12:50 59.54954 31.91918 25170 ft 479 kts 104°
2026-05-05 12:51 59.54352 31.98394 25510 ft 480 kts 105°
2026-05-05 12:51 59.53454 32.04705 25839 ft 477 kts 115°
2026-05-05 12:51 59.52115 32.10548 26158 ft 472 kts 124°
2026-05-05 12:51 59.50344 32.15971 26459 ft 468 kts 133°
2026-05-05 12:52 59.48225 32.20769 26791 ft 462 kts 141°
2026-05-05 12:52 59.45941 32.25244 27119 ft 464 kts 141°
2026-05-05 12:52 59.43643 32.29728 27426 ft 465 kts 141°
2026-05-05 12:52 59.41336 32.34213 27726 ft 467 kts 141°
2026-05-05 12:53 59.39018 32.38703 28025 ft 469 kts 141°
2026-05-05 12:53 59.36691 32.43204 28324 ft 471 kts 141°
2026-05-05 12:53 59.34357 32.47718 28591 ft 472 kts 141°
2026-05-05 12:53 59.32013 32.52248 28888 ft 474 kts 141°
2026-05-05 12:54 59.27293 32.61333 29480 ft 476 kts 141°
2026-05-05 12:54 59.24929 32.65877 29852 ft 476 kts 141°
2026-05-05 12:54 59.22574 32.70405 30173 ft 475 kts 141°
2026-05-05 12:55 59.20248 32.74862 30529 ft 474 kts 141°
2026-05-05 12:55 59.17897 32.79356 30897 ft 472 kts 141°
2026-05-05 12:55 59.15549 32.83827 31249 ft 471 kts 141°
2026-05-05 12:55 59.13201 32.88279 31605 ft 470 kts 141°
2026-05-05 12:56 59.10855 32.92720 31945 ft 469 kts 141°
2026-05-05 12:56 59.08517 32.97140 32315 ft 468 kts 141°
2026-05-05 12:56 59.06184 33.01555 32671 ft 467 kts 141°
2026-05-05 12:56 59.03859 33.05949 33027 ft 465 kts 141°
2026-05-05 12:57 59.01538 33.10328 33368 ft 464 kts 141°
2026-05-05 12:57 58.99219 33.14686 33717 ft 463 kts 141°
2026-05-05 12:57 58.96932 33.18976 33994 ft 463 kts 141°
2026-05-05 12:57 58.94589 33.23361 34240 ft 462 kts 141°
2026-05-05 12:58 58.92304 33.27625 34468 ft 463 kts 141°
2026-05-05 12:58 58.89987 33.31945 34689 ft 463 kts 141°
2026-05-05 12:58 58.87657 33.36278 34765 ft 462 kts 141°
2026-05-05 12:59 58.83032 33.44848 34752 ft 460 kts 141°
2026-05-05 12:59 58.78409 33.53376 34781 ft 460 kts 141°
2026-05-05 13:00 58.71476 33.66120 34792 ft 460 kts 141°
2026-05-05 13:01 58.62205 33.83056 34791 ft 459 kts 141°
2026-05-05 13:01 58.57567 33.91482 34768 ft 459 kts 141°
2026-05-05 13:02 58.52928 33.99872 34777 ft 458 kts 141°
2026-05-05 13:02 58.48279 34.08220 34783 ft 458 kts 141°
2026-05-05 13:03 58.43646 34.16541 34791 ft 458 kts 141°
2026-05-05 13:03 58.38997 34.24868 34791 ft 458 kts 141°
2026-05-05 13:04 58.34347 34.33160 34775 ft 458 kts 141°
2026-05-05 13:04 58.29693 34.41416 34787 ft 458 kts 141°
2026-05-05 13:05 58.25016 34.49660 34790 ft 458 kts 141°
2026-05-05 13:05 58.20344 34.57869 34793 ft 458 kts 141°
2026-05-05 13:06 58.15549 34.65803 34792 ft 456 kts 144°
2026-05-05 13:06 58.10671 34.73374 34773 ft 456 kts 145°
2026-05-05 13:07 58.05756 34.80976 34778 ft 457 kts 144°
2026-05-05 13:07 58.00864 34.88644 34783 ft 457 kts 144°
2026-05-05 13:08 57.95979 34.96336 34786 ft 458 kts 144°
2026-05-05 13:08 57.91082 35.03997 34750 ft 458 kts 144°
2026-05-05 13:09 57.86180 35.11620 34760 ft 459 kts 145°
2026-05-05 13:09 57.81247 35.19248 34772 ft 460 kts 145°
2026-05-05 13:10 57.76304 35.26871 34782 ft 460 kts 145°
2026-05-05 13:10 57.71354 35.34475 34787 ft 461 kts 145°
2026-05-05 13:11 57.66396 35.42076 34775 ft 461 kts 146°
2026-05-05 13:11 57.61421 35.49662 34440 ft 462 kts 146°
2026-05-05 13:12 57.58895 35.53498 34200 ft 462 kts 146°
2026-05-05 13:12 57.56434 35.57240 33968 ft 463 kts 145°
2026-05-05 13:12 57.53936 35.61048 33722 ft 463 kts 145°
2026-05-05 13:12 57.51443 35.64849 33418 ft 463 kts 145°
2026-05-05 13:13 57.48937 35.68669 32449 ft 470 kts 145°
2026-05-05 13:13 57.46398 35.72525 31756 ft 470 kts 145°
2026-05-05 13:13 57.44725 35.75063 31430 ft 467 kts 145°
2026-05-05 13:13 57.42212 35.78862 30834 ft 464 kts 147°
2026-05-05 13:14 57.39707 35.82642 30287 ft 461 kts 147°
2026-05-05 13:14 57.37222 35.86382 29699 ft 459 kts 147°
2026-05-05 13:14 57.34749 35.90101 29121 ft 456 kts 147°
2026-05-05 13:14 57.32295 35.93783 28575 ft 451 kts 147°
2026-05-05 13:15 57.29867 35.97415 28041 ft 447 kts 147°
2026-05-05 13:15 57.27455 36.01013 27505 ft 443 kts 148°
2026-05-05 13:15 57.25070 36.04571 26942 ft 440 kts 148°
2026-05-05 13:15 57.22704 36.08104 26450 ft 436 kts 148°
2026-05-05 13:16 57.20358 36.11602 25932 ft 432 kts 148°
2026-05-05 13:16 57.18027 36.15063 25418 ft 428 kts 148°
2026-05-05 13:16 57.15714 36.18488 24945 ft 425 kts 148°
2026-05-05 13:16 57.13417 36.21881 24456 ft 421 kts 149°
2026-05-05 13:17 57.11136 36.25244 23995 ft 418 kts 149°
2026-05-05 13:17 57.08876 36.28572 23530 ft 415 kts 149°
2026-05-05 13:17 57.06634 36.31869 23044 ft 411 kts 149°
2026-05-05 13:17 57.04412 36.35132 22607 ft 405 kts 149°
2026-05-05 13:18 57.02224 36.38340 22179 ft 400 kts 149°
2026-05-05 13:18 57.00059 36.41491 21756 ft 394 kts 149°
2026-05-05 13:18 56.97916 36.44585 21338 ft 390 kts 149°
2026-05-05 13:18 56.95792 36.47638 20878 ft 386 kts 149°
2026-05-05 13:19 56.93691 36.50649 20487 ft 381 kts 148°
2026-05-05 13:19 56.91610 36.53627 20059 ft 378 kts 148°
2026-05-05 13:19 56.89543 36.56584 19622 ft 376 kts 148°
2026-05-05 13:19 56.87516 36.59493 19195 ft 374 kts 148°
2026-05-05 13:20 56.85476 36.62438 18757 ft 373 kts 148°
2026-05-05 13:20 56.83449 36.65374 18327 ft 371 kts 148°
2026-05-05 13:20 56.81428 36.68301 17872 ft 370 kts 148°
2026-05-05 13:20 56.79419 36.71204 17418 ft 367 kts 147°
2026-05-05 13:21 56.77425 36.74078 16984 ft 364 kts 148°
2026-05-05 13:21 56.75451 36.76921 16574 ft 361 kts 147°
2026-05-05 13:21 56.73488 36.79742 16157 ft 358 kts 147°
2026-05-05 13:21 56.71564 36.82607 15753 ft 359 kts 142°
2026-05-05 13:22 56.69790 36.85806 15337 ft 359 kts 140°
2026-05-05 13:22 56.68023 36.89009 14906 ft 358 kts 140°
2026-05-05 13:22 56.66260 36.92196 14492 ft 356 kts 140°
2026-05-05 13:22 56.64505 36.95360 14073 ft 355 kts 140°
2026-05-05 13:23 56.62754 36.98517 13661 ft 354 kts 140°
2026-05-05 13:23 56.61010 37.01655 13206 ft 352 kts 140°
2026-05-05 13:23 56.59276 37.04771 12775 ft 349 kts 140°
2026-05-05 13:23 56.57549 37.07838 12394 ft 344 kts 143°
2026-05-05 13:24 56.55688 37.10495 12131 ft 338 kts 148°
2026-05-05 13:24 56.53816 37.13056 11880 ft 337 kts 148°
2026-05-05 13:24 56.51954 37.15581 11577 ft 331 kts 148°
2026-05-05 13:24 56.50111 37.18073 11153 ft 330 kts 148°
2026-05-05 13:25 56.48274 37.20548 10747 ft 329 kts 148°
2026-05-05 13:25 56.46437 37.23018 10322 ft 329 kts 148°
2026-05-05 13:25 56.44611 37.25471 10030 ft 324 kts 148°
2026-05-05 13:25 56.42835 37.27864 9884 ft 313 kts 148°
2026-05-05 13:26 56.41110 37.30194 9676 ft 306 kts 149°
2026-05-05 13:26 56.39402 37.32496 9396 ft 306 kts 149°
2026-05-05 13:26 56.37693 37.34788 8944 ft 306 kts 149°
2026-05-05 13:26 56.35990 37.37069 8582 ft 303 kts 149°
2026-05-05 13:27 56.34296 37.39336 8148 ft 303 kts 149°
2026-05-05 13:27 56.32616 37.41581 7822 ft 299 kts 149°
2026-05-05 13:27 56.30946 37.43810 7443 ft 298 kts 149°
2026-05-05 13:27 56.29285 37.46027 7095 ft 296 kts 149°
2026-05-05 13:28 56.27638 37.48228 6730 ft 294 kts 149°
2026-05-05 13:28 56.25999 37.50412 6358 ft 292 kts 149°
2026-05-05 13:28 56.24369 37.52574 5975 ft 290 kts 149°
2026-05-05 13:28 56.22789 37.54675 5792 ft 270 kts 149°
2026-05-05 13:29 56.21328 37.56630 5443 ft 254 kts 149°
2026-05-05 13:29 56.19923 37.58512 4952 ft 253 kts 147°
2026-05-05 13:29 56.18662 37.60708 4670 ft 250 kts 139°
2026-05-05 13:29 56.17458 37.62929 4556 ft 248 kts 139°
2026-05-05 13:30 56.16266 37.65121 4423 ft 248 kts 139°
2026-05-05 13:30 56.15065 37.67328 4296 ft 247 kts 139°
2026-05-05 13:30 56.13862 37.69536 4171 ft 247 kts 140°
2026-05-05 13:30 56.12678 37.71711 4037 ft 238 kts 140°
2026-05-05 13:31 56.11547 37.73782 3909 ft 229 kts 139°
2026-05-05 13:31 56.10421 37.75770 3782 ft 225 kts 148°
2026-05-05 13:31 56.09073 37.76916 3664 ft 205 kts 175°
2026-05-05 13:31 56.07748 37.76910 3545 ft 179 kts 198°
2026-05-05 13:32 56.06609 37.76270 3442 ft 165 kts 202°
2026-05-05 13:32 56.05524 37.75649 3312 ft 162 kts 203°
2026-05-05 13:32 56.04458 37.75046 3184 ft 161 kts 203°
2026-05-05 13:32 56.03384 37.74438 3072 ft 162 kts 203°
2026-05-05 13:33 56.02396 37.73559 2935 ft 155 kts 221°
2026-05-05 13:33 56.01717 37.72102 2813 ft 152 kts 244°
2026-05-05 13:33 56.01390 37.70317 2702 ft 151 kts 255°
2026-05-05 13:33 56.01124 37.68495 2560 ft 152 kts 255°
2026-05-05 13:34 56.00857 37.66671 2443 ft 151 kts 255°
2026-05-05 13:34 56.00592 37.64866 2481 ft 150 kts 255°
2026-05-05 13:34 56.00327 37.63057 2437 ft 151 kts 255°
2026-05-05 13:34 56.00063 37.61258 2321 ft 155 kts 255°
2026-05-05 13:35 55.99787 37.59387 2257 ft 156 kts 255°
2026-05-05 13:35 55.99505 37.57470 2089 ft 158 kts 256°
2026-05-05 13:35 55.99232 37.55622 1920 ft 153 kts 255°
2026-05-05 13:35 55.98964 37.53799 1714 ft 151 kts 255°
2026-05-05 13:36 55.98698 37.52003 1515 ft 150 kts 255°
2026-05-05 13:36 55.98421 37.50148 1315 ft 156 kts 255°
2026-05-05 13:36 55.98142 37.48275 1095 ft 160 kts 255°
2026-05-05 13:36 55.97862 37.46361 886 ft 159 kts 256°
2026-05-05 13:37 55.97581 37.44435 690 ft 161 kts 254°
2026-05-05 13:37 55.97309 37.42615 642 ft 131 kts 255°
2026-05-05 13:37 55.97144 37.41505 642 ft 41 kts 255°
2026-05-05 13:37 55.97177 37.41339 643 ft 13 kts 345°
2026-05-05 13:38 55.97261 37.41301 639 ft 12 kts 346°
2026-05-05 13:38 55.97333 37.41265 640 ft 9 kts 344°
2026-05-05 13:38 55.97398 37.41236 643 ft 13 kts 346°
2026-05-05 13:38 55.97498 37.41187 641 ft 9 kts 345°
2026-05-05 13:39 55.97547 37.41164 642 ft 7 kts 345°
2026-05-05 13:39 55.97587 37.41143 644 ft 5 kts 337°
2026-05-05 13:39 55.97607 37.41055 641 ft 13 kts 263°
2026-05-05 13:39 55.97606 37.40890 645 ft 13 kts 286°
2026-05-05 13:40 55.97594 37.40736 639 ft 12 kts 253°
2026-05-05 13:40 55.97624 37.40621 639 ft 11 kts 337°
2026-05-05 13:40 55.97691 37.40587 642 ft 9 kts 345°
2026-05-05 13:40 55.97714 37.40508 642 ft 7 kts 255°
2026-05-05 13:41 55.97705 37.40442 634 ft 4 kts 256°
2026-05-05 13:41 55.97699 37.40399 642 ft 3 kts 256°
2026-05-05 13:41 55.97694 37.40364 639 ft 2 kts 256°
2026-05-05 13:41 55.97692 37.40349 639 ft 0 kts 256°
2026-05-05 13:48 55.97689 37.40315 645 ft 10 kts 277°
2026-05-05 13:48 55.97691 37.40302 643 ft 8 kts 192°
2026-05-05 13:48 55.97643 37.40334 639 ft 8 kts 161°
2026-05-05 13:48 55.97617 37.40348 641 ft 0 kts 165°